Time,TemperatureF,DewpointF,PressureIn,WindDirection,WindDirectionDegrees,WindSpeedMPH,WindSpeedGustMPH,Humidity,HourlyPrecipIn,Conditions,Clouds,dailyrainin,SoftwareType,DateUTC
2013-08-09 00:00:00,58.8,57.4,29.95,NE,36,0.0,0.0,95,0.00,,OVC120,0.01,VWS V14.00,2013-08-09 04:00:00,
2013-08-09 00:01:00,57.8,56.7,29.95,NE,36,0.0,0.0,96,0.00,,SCT230,0.00,VWS V14.00,2013-08-09 04:01:00,
2013-08-09 00:04:00,57.8,56.7,29.95,NE,36,0.0,0.0,96,0.00,,SCT230,0.00,VWS V14.00,2013-08-09 04:04:00,
2013-08-09 00:09:00,57.8,57.0,29.95,NE,36,0.0,0.0,97,0.00,,SCT230,0.00,VWS V14.00,2013-08-09 04:09:00,
2013-08-09 00:14:00,57.8,57.0,29.95,NE,36,0.0,0.0,97,0.00,,SCT230,0.00,VWS V14.00,2013-08-09 04:14:00,
2013-08-09 00:19:00,57.7,56.9,29.95,NE,36,0.0,0.0,97,0.00,,SCT230,0.00,VWS V14.00,2013-08-09 04:19:00,
2013-08-09 00:24:00,57.7,56.9,29.95,NE,36,1.0,1.0,97,0.00,,SCT230,0.00,VWS V14.00,2013-08-09 04:24:00,
2013-08-09 00:29:00,57.9,57.1,29.95,NE,36,0.0,2.0,97,0.00,,SCT230,0.00,VWS V14.00,2013-08-09 04:29:00,
2013-08-09 00:30:00,58.0,56.9,29.94,NE,36,0.0,0.0,96,0.00,,OVC120,0.01,VWS V14.00,2013-08-09 04:30:00,
2013-08-09 00:34:00,57.8,57.0,29.95,NE,36,0.0,2.0,97,0.00,,SCT230,0.00,VWS V14.00,2013-08-09 04:34:00,
2013-08-09 00:40:00,57.7,56.9,29.95,NE,36,0.0,2.0,97,0.00,,SCT230,0.00,VWS V14.00,2013-08-09 04:40:00,
2013-08-09 00:45:00,57.6,56.8,29.95,NE,36,0.0,2.0,97,0.00,,SCT230,0.00,VWS V14.00,2013-08-09 04:45:00,
2013-08-09 00:50:00,57.5,56.7,29.95,NE,36,0.0,2.0,97,0.00,,SCT230,0.00,VWS V14.00,2013-08-09 04:50:00,
2013-08-09 00:55:00,57.5,56.7,29.95,NE,36,0.0,2.0,97,0.00,,SCT230,0.00,VWS V14.00,2013-08-09 04:55:00,
2013-08-09 01:00:00,57.6,56.8,29.95,NE,36,0.0,0.0,97,0.00,,SCT230,0.00,VWS V14.00,2013-08-09 05:00:00,
2013-08-09 01:05:00,57.6,56.8,29.95,NE,36,0.0,0.0,97,0.00,,SCT230,0.00,VWS V14.00,2013-08-09 05:05:00,
2013-08-09 01:10:00,57.6,56.8,29.95,NE,36,0.0,0.0,97,0.00,,SCT230,0.00,VWS V14.00,2013-08-09 05:10:00,
2013-08-09 01:15:00,57.5,56.7,29.95,NE,36,0.0,0.0,97,0.00,,SCT230,0.00,VWS V14.00,2013-08-09 05:15:00,
2013-08-09 01:20:00,57.3,56.5,29.95,NE,36,0.0,0.0,97,0.00,,SCT230,0.00,VWS V14.00,2013-08-09 05:20:00,
2013-08-09 01:25:00,57.1,56.3,29.95,NE,36,0.0,0.0,97,0.00,,SCT230,0.00,VWS V14.00,2013-08-09 05:25:00,
2013-08-09 01:30:00,57.1,56.3,29.95,NE,36,0.0,0.0,97,0.00,,SCT230,0.00,VWS V14.00,2013-08-09 05:30:00,
2013-08-09 01:35:00,57.0,56.2,29.95,NE,36,0.0,0.0,97,0.00,,SCT230,0.00,VWS V14.00,2013-08-09 05:35:00,
2013-08-09 01:40:00,56.9,56.1,29.96,NE,36,0.0,0.0,97,0.00,,SCT230,0.00,VWS V14.00,2013-08-09 05:40:00,
2013-08-09 01:45:00,56.9,56.1,29.95,NE,36,0.0,0.0,97,0.00,,SCT230,0.00,VWS V14.00,2013-08-09 05:45:00,
2013-08-09 01:50:00,56.8,56.0,29.95,NE,36,0.0,0.0,97,0.00,,SCT230,0.00,VWS V14.00,2013-08-09 05:50:00,
2013-08-09 01:56:00,56.7,55.9,29.95,NE,36,0.0,0.0,97,0.00,,SCT230,0.00,VWS V14.00,2013-08-09 05:56:00,
2013-08-09 02:00:00,56.6,55.8,29.95,NE,36,0.0,0.0,97,0.00,,CLR,0.00,VWS V14.00,2013-08-09 06:00:00,
2013-08-09 02:06:00,56.6,55.8,29.95,NE,36,0.0,0.0,97,0.00,,CLR,0.00,VWS V14.00,2013-08-09 06:06:00,
2013-08-09 02:11:00,56.6,56.0,29.95,NE,36,0.0,0.0,98,0.00,,CLR,0.00,VWS V14.00,2013-08-09 06:11:00,
2013-08-09 02:16:00,56.8,56.2,29.94,NE,36,0.0,0.0,98,0.00,,CLR,0.00,VWS V14.00,2013-08-09 06:16:00,
2013-08-09 02:21:00,57.0,56.4,29.94,NE,36,0.0,0.0,98,0.00,,CLR,0.00,VWS V14.00,2013-08-09 06:21:00,
2013-08-09 02:22:00,57.0,56.4,29.94,NE,36,0.0,0.0,98,0.00,,CLR,0.00,VWS V14.00,2013-08-09 06:22:00,
2013-08-09 02:27:00,57.0,56.4,29.94,NE,36,0.0,0.0,98,0.00,,CLR,0.00,VWS V14.00,2013-08-09 06:27:00,
2013-08-09 02:30:00,57.1,56.3,29.95,NE,36,0.0,0.0,97,0.00,,OVC120,0.00,VWS V14.00,2013-08-09 06:30:00,
2013-08-09 02:32:00,56.8,56.2,29.94,NE,36,0.0,0.0,98,0.00,,CLR,0.00,VWS V14.00,2013-08-09 06:32:00,
2013-08-09 02:37:00,56.7,56.1,29.94,NE,36,0.0,0.0,98,0.00,,CLR,0.00,VWS V14.00,2013-08-09 06:37:00,
2013-08-09 02:42:00,56.6,56.0,29.94,NE,36,0.0,0.0,98,0.00,,CLR,0.00,VWS V14.00,2013-08-09 06:42:00,
2013-08-09 02:47:00,56.5,55.9,29.94,NE,36,0.0,0.0,98,0.00,,CLR,0.00,VWS V14.00,2013-08-09 06:47:00,
2013-08-09 02:52:00,56.5,55.9,29.94,NE,36,0.0,0.0,98,0.00,,CLR,0.00,VWS V14.00,2013-08-09 06:52:00,
2013-08-09 02:57:00,56.4,55.8,29.94,NE,36,0.0,0.0,98,0.00,,CLR,0.00,VWS V14.00,2013-08-09 06:57:00,
2013-08-09 03:00:00,56.6,55.8,29.95,NE,36,0.0,0.0,97,0.00,,OVC120,0.00,VWS V14.00,2013-08-09 07:00:00,
2013-08-09 03:02:00,56.3,55.8,29.94,NE,36,0.0,0.0,98,0.00,,CLR,0.00,VWS V14.00,2013-08-09 07:02:00,
2013-08-09 03:07:00,56.0,55.5,29.94,NE,36,0.0,0.0,98,0.00,,CLR,0.00,VWS V14.00,2013-08-09 07:07:00,
2013-08-09 03:12:00,55.8,55.2,29.94,NE,36,0.0,0.0,98,0.00,,CLR,0.00,VWS V14.00,2013-08-09 07:12:00,
2013-08-09 03:17:00,55.7,55.2,29.93,NE,36,0.0,0.0,98,0.00,,CLR,0.00,VWS V14.00,2013-08-09 07:17:00,
2013-08-09 03:22:00,55.8,55.2,29.94,NE,36,0.0,0.0,98,0.00,,CLR,0.00,VWS V14.00,2013-08-09 07:22:00,
2013-08-09 03:27:00,56.1,55.5,29.93,NE,36,0.0,0.0,98,0.00,,CLR,0.00,VWS V14.00,2013-08-09 07:27:00,
2013-08-09 03:30:00,56.9,56.3,29.94,NE,36,0.0,0.0,98,0.00,,OVC120,0.00,VWS V14.00,2013-08-09 07:30:00,
2013-08-09 03:32:00,56.1,55.5,29.94,NE,36,0.0,0.0,98,0.00,,CLR,0.00,VWS V14.00,2013-08-09 07:32:00,
2013-08-09 03:37:00,56.0,55.5,29.93,NE,36,0.0,0.0,98,0.00,,CLR,0.00,VWS V14.00,2013-08-09 07:37:00,
2013-08-09 03:42:00,55.9,55.3,29.93,NE,36,0.0,0.0,98,0.00,,CLR,0.00,VWS V14.00,2013-08-09 07:42:00,
2013-08-09 03:47:00,55.8,55.2,29.93,NE,36,0.0,0.0,98,0.00,,CLR,0.00,VWS V14.00,2013-08-09 07:47:00,
2013-08-09 03:52:00,55.5,55.0,29.93,NE,36,0.0,0.0,98,0.00,,CLR,0.00,VWS V14.00,2013-08-09 07:52:00,
2013-08-09 03:57:00,55.2,54.7,29.93,NE,36,0.0,0.0,98,0.00,,CLR,0.00,VWS V14.00,2013-08-09 07:57:00,
2013-08-09 04:00:00,56.4,55.8,29.94,NE,36,0.0,0.0,98,0.00,,OVC120,0.00,VWS V14.00,2013-08-09 08:00:00,
2013-08-09 04:02:00,55.0,54.5,29.93,NE,36,0.0,0.0,98,0.00,,CLR,0.00,VWS V14.00,2013-08-09 08:02:00,
2013-08-09 04:07:00,55.0,54.5,29.93,NE,36,0.0,0.0,98,0.00,,CLR,0.00,VWS V14.00,2013-08-09 08:07:00,
2013-08-09 04:12:00,54.8,54.2,29.93,NE,36,0.0,0.0,98,0.00,,CLR,0.00,VWS V14.00,2013-08-09 08:12:00,
2013-08-09 04:17:00,54.5,54.0,29.92,NE,36,0.0,0.0,98,0.00,,CLR,0.00,VWS V14.00,2013-08-09 08:17:00,
2013-08-09 04:23:00,54.4,53.8,29.93,NE,36,0.0,0.0,98,0.00,,CLR,0.00,VWS V14.00,2013-08-09 08:23:00,
2013-08-09 04:28:00,54.1,53.5,29.93,NE,36,0.0,0.0,98,0.00,,CLR,0.00,VWS V14.00,2013-08-09 08:28:00,
2013-08-09 04:30:00,56.1,55.5,29.93,NE,36,0.0,0.0,98,0.00,,OVC120,0.00,VWS V14.00,2013-08-09 08:30:00,
2013-08-09 04:33:00,53.9,53.3,29.93,NE,36,0.0,0.0,98,0.00,,CLR,0.00,VWS V14.00,2013-08-09 08:33:00,
2013-08-09 04:38:00,53.6,53.0,29.93,NE,36,0.0,0.0,98,0.00,,CLR,0.00,VWS V14.00,2013-08-09 08:38:00,
2013-08-09 04:43:00,53.6,53.0,29.92,NE,36,0.0,0.0,98,0.00,,CLR,0.00,VWS V14.00,2013-08-09 08:43:00,
2013-08-09 04:48:00,53.7,53.2,29.93,NE,36,0.0,0.0,98,0.00,,CLR,0.00,VWS V14.00,2013-08-09 08:48:00,
2013-08-09 04:53:00,53.5,53.0,29.93,NE,36,0.0,0.0,98,0.00,,CLR,0.00,VWS V14.00,2013-08-09 08:53:00,
2013-08-09 04:58:00,53.3,52.8,29.93,NE,36,0.0,0.0,98,0.00,,CLR,0.00,VWS V14.00,2013-08-09 08:58:00,
2013-08-09 05:00:00,55.1,54.5,29.93,NE,36,0.0,0.0,98,0.00,,OVC120,0.00,VWS V14.00,2013-08-09 09:00:00,
2013-08-09 05:03:00,53.2,52.7,29.93,NE,36,0.0,0.0,98,0.00,,CLR,0.00,VWS V14.00,2013-08-09 09:03:00,
2013-08-09 05:08:00,52.9,52.3,29.94,NE,36,0.0,0.0,98,0.00,,CLR,0.00,VWS V14.00,2013-08-09 09:08:00,
2013-08-09 05:13:00,52.7,52.2,29.94,NE,36,0.0,0.0,98,0.00,,CLR,0.00,VWS V14.00,2013-08-09 09:13:00,
2013-08-09 05:18:00,52.6,52.0,29.94,NE,36,0.0,0.0,98,0.00,,CLR,0.00,VWS V14.00,2013-08-09 09:18:00,
2013-08-09 05:23:00,52.5,52.0,29.94,NE,36,0.0,0.0,98,0.00,,CLR,0.00,VWS V14.00,2013-08-09 09:23:00,
2013-08-09 05:28:00,52.4,51.8,29.94,NE,36,0.0,0.0,98,0.00,,CLR,0.00,VWS V14.00,2013-08-09 09:28:00,
2013-08-09 05:30:00,54.0,53.5,29.93,NE,36,0.0,0.0,98,0.00,,OVC120,0.00,VWS V14.00,2013-08-09 09:30:00,
2013-08-09 05:33:00,52.3,51.8,29.94,NE,36,0.0,0.0,98,0.00,,CLR,0.00,VWS V14.00,2013-08-09 09:33:00,
2013-08-09 05:38:00,52.1,51.5,29.94,NE,36,0.0,0.0,98,0.00,,CLR,0.00,VWS V14.00,2013-08-09 09:38:00,
2013-08-09 05:43:00,52.0,51.5,29.94,NE,36,0.0,0.0,98,0.00,,CLR,0.00,VWS V14.00,2013-08-09 09:43:00,
2013-08-09 05:48:00,52.4,51.8,29.94,NE,36,0.0,0.0,98,0.00,,CLR,0.00,VWS V14.00,2013-08-09 09:48:00,
2013-08-09 05:53:00,52.7,52.4,29.94,NE,36,0.0,0.0,99,0.00,,CLR,0.00,VWS V14.00,2013-08-09 09:53:00,
2013-08-09 05:58:00,52.6,52.3,29.94,NE,36,0.0,0.0,99,0.00,,CLR,0.00,VWS V14.00,2013-08-09 09:58:00,
2013-08-09 06:00:00,53.3,52.8,29.93,NE,36,0.0,0.0,98,0.00,,OVC120,0.00,VWS V14.00,2013-08-09 10:00:00,
2013-08-09 06:03:00,52.3,51.8,29.94,NE,36,0.0,0.0,98,0.00,,CLR,0.00,VWS V14.00,2013-08-09 10:03:00,
2013-08-09 06:08:00,52.1,51.5,29.94,NE,36,0.0,0.0,98,0.00,,CLR,0.00,VWS V14.00,2013-08-09 10:08:00,
2013-08-09 06:13:00,52.0,51.7,29.94,NE,36,0.0,0.0,99,0.00,,CLR,0.00,VWS V14.00,2013-08-09 10:13:00,
2013-08-09 06:18:00,51.9,51.6,29.94,NE,36,0.0,0.0,99,0.00,,CLR,0.00,VWS V14.00,2013-08-09 10:18:00,
2013-08-09 06:23:00,51.8,51.3,29.94,NE,36,0.0,0.0,98,0.00,,CLR,0.00,VWS V14.00,2013-08-09 10:23:00,
2013-08-09 06:28:00,51.7,51.2,29.95,NE,36,0.0,0.0,98,0.00,,CLR,0.00,VWS V14.00,2013-08-09 10:28:00,
2013-08-09 06:30:00,52.3,51.8,29.94,NE,36,0.0,0.0,98,0.00,,OVC120,0.00,VWS V14.00,2013-08-09 10:30:00,
2013-08-09 06:33:00,51.7,51.2,29.94,NE,36,0.0,0.0,98,0.00,,CLR,0.00,VWS V14.00,2013-08-09 10:33:00,
2013-08-09 06:38:00,51.7,51.2,29.94,NE,36,0.0,0.0,98,0.00,,CLR,0.00,VWS V14.00,2013-08-09 10:38:00,
2013-08-09 06:43:00,51.7,51.2,29.95,NE,36,0.0,0.0,98,0.00,,CLR,0.00,VWS V14.00,2013-08-09 10:43:00,
2013-08-09 06:48:00,51.7,51.2,29.95,NE,36,0.0,0.0,98,0.00,,CLR,0.00,VWS V14.00,2013-08-09 10:48:00,
2013-08-09 06:53:00,51.6,51.1,29.95,NNW,339,0.0,0.0,98,0.00,,CLR,0.00,VWS V14.00,2013-08-09 10:53:00,
2013-08-09 06:58:00,51.5,51.2,29.95,NNW,339,0.0,0.0,99,0.00,,CLR,0.00,VWS V14.00,2013-08-09 10:58:00,
2013-08-09 07:00:00,52.5,52.2,29.94,NE,36,0.0,0.0,99,0.00,,OVC120,0.00,VWS V14.00,2013-08-09 11:00:00,
2013-08-09 07:03:00,51.6,51.3,29.95,NNW,339,0.0,0.0,99,0.00,,CLR,0.00,VWS V14.00,2013-08-09 11:03:00,
2013-08-09 07:09:00,51.8,51.5,29.94,NNW,339,0.0,0.0,99,0.00,,CLR,0.00,VWS V14.00,2013-08-09 11:09:00,
2013-08-09 07:14:00,51.9,51.6,29.94,NNW,338,0.0,0.0,99,0.00,,CLR,0.00,VWS V14.00,2013-08-09 11:14:00,
2013-08-09 07:19:00,51.9,51.6,29.95,NNW,339,0.0,0.0,99,0.00,,CLR,0.00,VWS V14.00,2013-08-09 11:19:00,
2013-08-09 07:24:00,51.8,51.5,29.95,NNW,338,0.0,0.0,99,0.00,,CLR,0.00,VWS V14.00,2013-08-09 11:24:00,
2013-08-09 07:29:00,51.8,51.5,29.95,NNW,338,0.0,0.0,99,0.00,,CLR,0.00,VWS V14.00,2013-08-09 11:29:00,
2013-08-09 07:30:00,51.7,51.2,29.95,NE,36,0.0,0.0,98,0.00,,OVC120,0.00,VWS V14.00,2013-08-09 11:30:00,
2013-08-09 07:34:00,51.9,51.6,29.95,NNW,338,0.0,0.0,99,0.00,,CLR,0.00,VWS V14.00,2013-08-09 11:34:00,
2013-08-09 07:39:00,52.1,51.8,29.95,NNW,339,0.0,0.0,99,0.00,,CLR,0.00,VWS V14.00,2013-08-09 11:39:00,
2013-08-09 07:44:00,52.6,52.3,29.95,NNW,338,0.0,0.0,99,0.00,,CLR,0.00,VWS V14.00,2013-08-09 11:44:00,
2013-08-09 07:49:00,53.3,53.0,29.95,NNW,339,0.0,0.0,99,0.00,,CLR,0.00,VWS V14.00,2013-08-09 11:49:00,
2013-08-09 07:54:00,54.1,53.8,29.95,NNW,338,0.0,0.0,99,0.00,,CLR,0.00,VWS V14.00,2013-08-09 11:54:00,
2013-08-09 07:59:00,54.8,54.5,29.95,NNW,338,0.0,0.0,99,0.00,,CLR,0.00,VWS V14.00,2013-08-09 11:59:00,
2013-08-09 08:00:00,51.5,51.2,29.95,NNW,339,0.0,0.0,99,0.00,,OVC120,0.00,VWS V14.00,2013-08-09 12:00:00,
2013-08-09 08:04:00,55.5,55.2,29.95,NNW,339,0.0,0.0,99,0.00,,CLR,0.00,VWS V14.00,2013-08-09 12:04:00,
2013-08-09 08:09:00,56.3,56.0,29.95,NNW,338,0.0,0.0,99,0.00,,CLR,0.00,VWS V14.00,2013-08-09 12:09:00,
2013-08-09 08:14:00,56.8,56.5,29.94,NNW,338,0.0,0.0,99,0.00,,CLR,0.00,VWS V14.00,2013-08-09 12:14:00,
2013-08-09 08:19:00,57.2,56.9,29.95,NNW,338,0.0,0.0,99,0.00,,CLR,0.00,VWS V14.00,2013-08-09 12:19:00,
2013-08-09 08:24:00,57.8,57.5,29.95,NNW,338,0.0,0.0,99,0.00,,CLR,0.00,VWS V14.00,2013-08-09 12:24:00,
2013-08-09 08:29:00,58.4,58.4,29.95,NNW,339,0.0,0.0,100,0.00,,CLR,0.00,VWS V14.00,2013-08-09 12:29:00,
2013-08-09 08:30:00,51.8,51.5,29.95,NNW,338,0.0,0.0,99,0.00,,OVC120,0.00,VWS V14.00,2013-08-09 12:30:00,
2013-08-09 08:35:00,58.5,58.2,29.95,NNW,339,0.0,1.0,99,0.00,,FEW150,0.00,VWS V14.00,2013-08-09 12:35:00,
2013-08-09 08:40:00,58.9,58.6,29.95,NNW,338,0.0,1.0,99,0.00,,FEW150,0.00,VWS V14.00,2013-08-09 12:40:00,
2013-08-09 08:45:00,59.3,59.0,29.95,North,360,0.0,1.0,99,0.00,,FEW150,0.00,VWS V14.00,2013-08-09 12:45:00,
2013-08-09 08:50:00,59.8,59.5,29.95,North,5,0.0,3.0,99,0.00,,FEW150,0.00,VWS V14.00,2013-08-09 12:50:00,
2013-08-09 08:55:00,60.3,60.0,29.95,North,5,3.0,3.0,99,0.00,,FEW150,0.00,VWS V14.00,2013-08-09 12:55:00,
2013-08-09 09:00:00,61.0,60.7,29.95,North,5,0.0,0.0,99,0.00,,CLR,0.00,VWS V14.00,2013-08-09 13:00:00,
2013-08-09 09:05:00,61.8,61.5,29.96,North,360,0.0,2.0,99,0.00,,CLR,0.00,VWS V14.00,2013-08-09 13:05:00,
2013-08-09 09:10:00,62.7,62.1,29.95,North,5,0.0,2.0,98,0.00,,CLR,0.00,VWS V14.00,2013-08-09 13:10:00,
2013-08-09 09:15:00,63.5,62.3,29.95,North,5,0.0,3.0,96,0.00,,CLR,0.00,VWS V14.00,2013-08-09 13:15:00,
2013-08-09 09:20:00,64.5,63.0,29.95,North,360,0.0,3.0,95,0.00,,CLR,0.00,VWS V14.00,2013-08-09 13:20:00,
2013-08-09 09:25:00,65.2,62.8,29.95,North,360,1.0,3.0,92,0.00,,CLR,0.00,VWS V14.00,2013-08-09 13:25:00,
2013-08-09 09:30:00,66.1,62.5,29.95,SW,221,5.0,5.0,88,0.00,,CLR,0.00,VWS V14.00,2013-08-09 13:30:00,
2013-08-09 09:35:00,66.6,61.3,29.95,SSW,204,3.0,7.0,83,0.00,,CLR,0.00,VWS V14.00,2013-08-09 13:35:00,
2013-08-09 09:40:00,67.4,62.1,29.95,SSW,203,0.0,7.0,83,0.00,,CLR,0.00,VWS V14.00,2013-08-09 13:40:00,
2013-08-09 09:45:00,67.9,61.2,29.95,SSW,202,3.0,7.0,79,0.00,,CLR,0.00,VWS V14.00,2013-08-09 13:45:00,
2013-08-09 09:51:00,68.3,60.5,29.95,SSW,207,4.0,7.0,76,0.00,,CLR,0.00,VWS V14.00,2013-08-09 13:51:00,
2013-08-09 09:56:00,68.7,60.5,29.95,SSW,200,3.0,7.0,75,0.00,,CLR,0.00,VWS V14.00,2013-08-09 13:56:00,
2013-08-09 10:00:00,60.9,60.6,29.95,North,5,0.0,3.0,99,0.00,,OVC120,0.00,VWS V14.00,2013-08-09 14:00:00,
2013-08-09 10:01:00,69.2,61.3,29.95,SSW,207,2.0,4.0,76,0.00,,CLR,0.00,VWS V14.00,2013-08-09 14:01:00,
2013-08-09 10:06:00,69.7,61.8,29.95,NNW,331,0.0,5.0,76,0.00,,CLR,0.00,VWS V14.00,2013-08-09 14:06:00,
2013-08-09 10:11:00,70.0,60.2,29.95,SSW,204,0.0,6.0,71,0.00,,CLR,0.00,VWS V14.00,2013-08-09 14:11:00,
2013-08-09 10:16:00,70.1,60.3,29.94,South,191,6.0,7.0,71,0.00,,CLR,0.00,VWS V14.00,2013-08-09 14:16:00,
2013-08-09 10:21:00,70.1,59.9,29.94,SSW,202,2.0,7.0,70,0.00,,CLR,0.00,VWS V14.00,2013-08-09 14:21:00,
2013-08-09 10:26:00,70.4,61.3,29.95,SSW,196,4.0,7.0,73,0.00,,CLR,0.00,VWS V14.00,2013-08-09 14:26:00,
2013-08-09 10:30:00,66.0,62.7,29.95,North,355,2.0,4.0,89,0.00,,OVC120,0.00,VWS V14.00,2013-08-09 14:30:00,
2013-08-09 10:31:00,70.9,62.6,29.95,SSW,205,0.0,2.0,75,0.00,,CLR,0.00,VWS V14.00,2013-08-09 14:31:00,
2013-08-09 10:36:00,71.6,62.1,29.94,WSW,240,1.0,4.0,72,0.00,,CLR,0.00,VWS V14.00,2013-08-09 14:36:00,
2013-08-09 10:41:00,71.7,60.6,29.94,SSW,205,2.0,7.0,68,0.00,,CLR,0.00,VWS V14.00,2013-08-09 14:41:00,
2013-08-09 10:46:00,71.8,62.7,29.95,SSW,207,1.0,7.0,73,0.00,,CLR,0.00,VWS V14.00,2013-08-09 14:46:00,
2013-08-09 10:52:00,72.2,61.9,29.95,SSW,213,4.0,9.0,70,0.00,,CLR,0.00,VWS V14.00,2013-08-09 14:52:00,
2013-08-09 10:57:00,72.4,61.2,29.95,SSW,199,4.0,9.0,68,0.00,,CLR,0.00,VWS V14.00,2013-08-09 14:57:00,
2013-08-09 11:00:00,69.1,61.6,29.95,SSW,200,0.0,7.0,77,0.00,,OVC120,0.00,VWS V14.00,2013-08-09 15:00:00,
2013-08-09 11:02:00,72.3,62.0,29.95,SSW,203,2.0,6.0,70,0.00,,CLR,0.00,VWS V14.00,2013-08-09 15:02:00,
2013-08-09 11:07:00,72.9,63.0,29.94,SSW,203,0.0,6.0,71,0.00,,CLR,0.00,VWS V14.00,2013-08-09 15:07:00,
2013-08-09 11:12:00,73.4,62.2,29.94,SSW,213,0.0,8.0,68,0.00,,CLR,0.00,VWS V14.00,2013-08-09 15:12:00,
2013-08-09 11:17:00,73.3,60.8,29.94,SSW,207,1.0,8.0,65,0.00,,CLR,0.00,VWS V14.00,2013-08-09 15:17:00,
2013-08-09 11:22:00,73.3,60.8,29.95,SW,217,1.0,8.0,65,0.00,,CLR,0.00,VWS V14.00,2013-08-09 15:22:00,
2013-08-09 11:27:00,73.8,61.3,29.95,SSW,208,4.0,8.0,65,0.00,,CLR,0.00,VWS V14.00,2013-08-09 15:27:00,
2013-08-09 11:30:00,70.7,62.4,29.95,SSW,205,0.0,7.0,75,0.00,,OVC120,0.00,VWS V14.00,2013-08-09 15:30:00,
2013-08-09 11:32:00,74.0,62.4,29.94,SSW,198,4.0,7.0,67,0.00,,CLR,0.00,VWS V14.00,2013-08-09 15:32:00,
2013-08-09 11:37:00,74.0,61.5,29.94,SSW,213,4.0,10.0,65,0.00,,CLR,0.00,VWS V14.00,2013-08-09 15:37:00,
2013-08-09 11:42:00,74.2,61.7,29.94,SSW,203,1.0,10.0,65,0.00,,CLR,0.00,VWS V14.00,2013-08-09 15:42:00,
2013-08-09 11:47:00,74.5,61.5,29.94,SSW,199,2.0,10.0,64,0.00,,CLR,0.00,VWS V14.00,2013-08-09 15:47:00,
2013-08-09 11:52:00,74.6,60.3,29.94,North,5,0.0,10.0,61,0.00,,CLR,0.00,VWS V14.00,2013-08-09 15:52:00,
2013-08-09 11:57:00,74.9,61.5,29.94,SSW,199,0.0,10.0,63,0.00,,CLR,0.00,VWS V14.00,2013-08-09 15:57:00,
2013-08-09 12:00:00,72.2,61.1,29.94,SSW,203,3.0,9.0,68,0.00,,OVC120,0.00,VWS V14.00,2013-08-09 16:00:00,
2013-08-09 12:02:00,75.1,60.8,29.94,SW,215,1.0,3.0,61,0.00,,CLR,0.00,VWS V14.00,2013-08-09 16:02:00,
2013-08-09 12:07:00,75.4,61.9,29.94,SSW,210,0.0,8.0,63,0.00,,CLR,0.00,VWS V14.00,2013-08-09 16:07:00,
2013-08-09 12:12:00,75.7,62.7,29.94,SSW,194,0.0,8.0,64,0.00,,CLR,0.00,VWS V14.00,2013-08-09 16:12:00,
2013-08-09 12:17:00,75.9,60.1,29.94,South,190,1.0,8.0,58,0.00,,CLR,0.00,VWS V14.00,2013-08-09 16:17:00,
2013-08-09 12:22:00,75.8,60.9,29.94,SSW,201,6.0,10.0,60,0.00,,CLR,0.00,VWS V14.00,2013-08-09 16:22:00,
2013-08-09 12:27:00,75.9,59.1,29.94,WSW,237,0.0,10.0,56,0.00,,CLR,0.00,VWS V14.00,2013-08-09 16:27:00,
2013-08-09 12:30:00,73.9,59.6,29.94,SSW,211,4.0,8.0,61,0.00,,OVC120,0.00,VWS V14.00,2013-08-09 16:30:00,
2013-08-09 12:32:00,76.1,60.3,29.94,WSW,252,0.0,4.0,58,0.00,,CLR,0.00,VWS V14.00,2013-08-09 16:32:00,
2013-08-09 12:37:00,76.3,59.5,29.93,South,184,1.0,5.0,56,0.00,,CLR,0.00,VWS V14.00,2013-08-09 16:37:00,
2013-08-09 12:42:00,76.6,60.2,29.93,South,184,0.0,5.0,57,0.00,,CLR,0.00,VWS V14.00,2013-08-09 16:42:00,
2013-08-09 12:48:00,76.9,58.0,29.93,SSW,194,2.0,6.0,52,0.00,,CLR,0.00,VWS V14.00,2013-08-09 16:48:00,
2013-08-09 12:53:00,76.7,59.8,29.93,SSW,204,1.0,7.0,56,0.00,,CLR,0.00,VWS V14.00,2013-08-09 16:53:00,
2013-08-09 12:58:00,77.0,59.6,29.93,South,183,0.0,7.0,55,0.00,,CLR,0.00,VWS V14.00,2013-08-09 16:58:00,
2013-08-09 13:00:00,75.0,61.1,29.94,SSW,194,0.0,10.0,62,0.00,,OVC120,0.00,VWS V14.00,2013-08-09 17:00:00,
2013-08-09 13:03:00,77.3,60.9,29.93,South,184,1.0,7.0,57,0.00,,FEW200,0.00,VWS V14.00,2013-08-09 17:03:00,
2013-08-09 13:08:00,77.5,60.6,29.93,SSW,203,1.0,7.0,56,0.00,,FEW200,0.00,VWS V14.00,2013-08-09 17:08:00,
2013-08-09 13:13:00,77.7,63.2,29.93,SSW,198,2.0,8.0,61,0.00,,FEW200,0.00,VWS V14.00,2013-08-09 17:13:00,
2013-08-09 13:18:00,78.2,61.2,29.93,South,186,1.0,8.0,56,0.00,,FEW200,0.00,VWS V14.00,2013-08-09 17:18:00,
2013-08-09 13:23:00,78.2,62.2,29.93,South,186,6.0,8.0,58,0.00,,FEW200,0.00,VWS V14.00,2013-08-09 17:23:00,
2013-08-09 13:28:00,78.0,61.0,29.93,SSW,207,0.0,9.0,56,0.00,,FEW200,0.00,VWS V14.00,2013-08-09 17:28:00,
2013-08-09 13:30:00,76.0,58.2,29.94,SSW,211,0.0,10.0,54,0.00,,OVC120,0.00,VWS V14.00,2013-08-09 17:30:00,
2013-08-09 13:33:00,77.8,59.3,29.93,SSW,209,1.0,8.0,53,0.00,,FEW200,0.00,VWS V14.00,2013-08-09 17:33:00,
2013-08-09 13:38:00,77.8,61.9,29.93,ESE,103,0.0,8.0,58,0.00,,FEW200,0.00,VWS V14.00,2013-08-09 17:38:00,
2013-08-09 13:43:00,78.0,62.0,29.93,SSW,213,0.0,8.0,58,0.00,,FEW200,0.00,VWS V14.00,2013-08-09 17:43:00,
2013-08-09 13:48:00,78.6,63.6,29.93,SSE,148,3.0,8.0,60,0.00,,FEW200,0.00,VWS V14.00,2013-08-09 17:48:00,
2013-08-09 13:54:00,78.3,61.8,29.93,SE,128,0.0,8.0,57,0.00,,FEW200,0.00,VWS V14.00,2013-08-09 17:54:00,
2013-08-09 13:59:00,78.0,62.0,29.93,ESE,111,3.0,8.0,58,0.00,,FEW200,0.00,VWS V14.00,2013-08-09 17:59:00,
2013-08-09 14:00:00,77.3,59.9,29.93,SSW,205,3.0,7.0,55,0.00,,OVC120,0.00,VWS V14.00,2013-08-09 18:00:00,
2013-08-09 14:04:00,77.7,62.2,29.93,SSE,166,0.0,5.0,59,0.00,,FEW200,0.00,VWS V14.00,2013-08-09 18:04:00,
2013-08-09 14:09:00,77.8,64.2,29.92,SW,233,1.0,6.0,63,0.00,,FEW200,0.00,VWS V14.00,2013-08-09 18:09:00,
2013-08-09 14:14:00,77.9,62.9,29.92,SSW,209,0.0,8.0,60,0.00,,FEW200,0.00,VWS V14.00,2013-08-09 18:14:00,
2013-08-09 14:19:00,78.0,63.5,29.92,SSW,206,6.0,8.0,61,0.00,,FEW200,0.00,VWS V14.00,2013-08-09 18:19:00,
2013-08-09 14:24:00,77.6,62.6,29.92,South,169,3.0,8.0,60,0.00,,FEW200,0.00,VWS V14.00,2013-08-09 18:24:00,
2013-08-09 14:29:00,77.5,64.8,29.92,SSW,194,3.0,8.0,65,0.00,,FEW200,0.00,VWS V14.00,2013-08-09 18:29:00,
2013-08-09 14:30:00,78.0,61.5,29.93,SSW,207,0.0,9.0,57,0.00,,OVC120,0.00,VWS V14.00,2013-08-09 18:30:00,
2013-08-09 14:34:00,77.3,64.2,29.92,SW,222,2.0,8.0,64,0.00,,FEW200,0.00,VWS V14.00,2013-08-09 18:34:00,
2013-08-09 14:39:00,77.5,63.0,29.92,WSW,240,0.0,8.0,61,0.00,,FEW200,0.00,VWS V14.00,2013-08-09 18:39:00,
2013-08-09 14:44:00,77.5,63.5,29.92,NW,326,0.0,8.0,62,0.00,,FEW200,0.00,VWS V14.00,2013-08-09 18:44:00,
2013-08-09 14:49:00,77.7,65.0,29.92,SSW,197,0.0,8.0,65,0.00,,FEW200,0.00,VWS V14.00,2013-08-09 18:49:00,
2013-08-09 14:50:00,77.8,65.5,29.92,SSW,196,0.0,8.0,66,0.00,,FEW200,0.00,VWS V14.00,2013-08-09 18:50:00,
2013-08-09 14:55:00,78.4,64.8,29.92,SSW,199,3.0,8.0,63,0.00,,FEW200,0.00,VWS V14.00,2013-08-09 18:55:00,
2013-08-09 15:00:00,78.2,64.6,29.92,SSW,196,0.0,0.0,63,0.00,,SCT200,0.00,VWS V14.00,2013-08-09 19:00:00,
2013-08-09 15:05:00,78.1,65.4,29.92,West,262,1.0,6.0,65,0.00,,SCT200,0.00,VWS V14.00,2013-08-09 19:05:00,
2013-08-09 15:10:00,78.4,63.8,29.92,NNE,22,0.0,6.0,61,0.00,,SCT200,0.00,VWS V14.00,2013-08-09 19:10:00,
2013-08-09 15:15:00,78.7,65.5,29.92,SW,230,0.0,6.0,64,0.00,,SCT200,0.00,VWS V14.00,2013-08-09 19:15:00,
2013-08-09 15:20:00,78.9,65.2,29.92,WNW,290,0.0,6.0,63,0.00,,SCT200,0.00,VWS V14.00,2013-08-09 19:20:00,
2013-08-09 15:25:00,78.8,64.7,29.92,SW,222,0.0,6.0,62,0.00,,SCT200,0.00,VWS V14.00,2013-08-09 19:25:00,
2013-08-09 15:30:00,77.5,63.5,29.92,SSW,196,8.0,8.0,62,0.00,,OVC120,0.00,VWS V14.00,2013-08-09 19:30:00,
2013-08-09 15:31:00,78.7,67.3,29.92,SSW,205,0.0,5.0,68,0.00,,SCT200,0.00,VWS V14.00,2013-08-09 19:31:00,
2013-08-09 15:36:00,78.9,65.2,29.92,SSW,212,2.0,9.0,63,0.00,,SCT200,0.00,VWS V14.00,2013-08-09 19:36:00,
2013-08-09 15:41:00,78.9,66.6,29.91,SSE,168,1.0,9.0,66,0.00,,SCT200,0.00,VWS V14.00,2013-08-09 19:41:00,
2013-08-09 15:46:00,79.2,66.9,29.92,SW,236,0.0,9.0,66,0.00,,SCT200,0.00,VWS V14.00,2013-08-09 19:46:00,
2013-08-09 15:51:00,79.1,65.0,29.91,NW,306,0.0,10.0,62,0.00,,SCT200,0.00,VWS V14.00,2013-08-09 19:51:00,
2013-08-09 15:56:00,78.8,64.2,29.91,SW,215,0.0,10.0,61,0.00,,SCT200,0.00,VWS V14.00,2013-08-09 19:56:00,
2013-08-09 16:00:00,78.2,64.6,29.92,SSW,196,0.0,8.0,63,0.00,,OVC120,0.00,VWS V14.00,2013-08-09 20:00:00,
2013-08-09 16:01:00,78.7,64.6,29.91,South,175,4.0,5.0,62,0.00,,SCT200,0.00,VWS V14.00,2013-08-09 20:01:00,
2013-08-09 16:06:00,78.7,64.6,29.91,SSW,199,2.0,10.0,62,0.00,,SCT200,0.00,VWS V14.00,2013-08-09 20:06:00,
2013-08-09 16:11:00,78.8,66.1,29.91,WSW,252,3.0,13.0,65,0.00,,SCT200,0.00,VWS V14.00,2013-08-09 20:11:00,
2013-08-09 16:16:00,78.7,63.2,29.91,NW,312,0.0,13.0,59,0.00,,SCT200,0.00,VWS V14.00,2013-08-09 20:16:00,
2013-08-09 16:21:00,78.4,64.8,29.91,East,98,0.0,13.0,63,0.00,,SCT200,0.00,VWS V14.00,2013-08-09 20:21:00,
2013-08-09 16:26:00,78.4,64.8,29.91,South,191,0.0,13.0,63,0.00,,SCT200,0.00,VWS V14.00,2013-08-09 20:26:00,
2013-08-09 16:30:00,78.7,67.3,29.92,SSW,210,0.0,6.0,68,0.00,,OVC120,0.00,VWS V14.00,2013-08-09 20:30:00,
2013-08-09 16:31:00,78.1,64.5,29.91,SSW,192,2.0,4.0,63,0.00,,SCT200,0.00,VWS V14.00,2013-08-09 20:31:00,
2013-08-09 16:36:00,78.6,66.7,29.91,West,279,2.0,8.0,67,0.00,,SCT200,0.00,VWS V14.00,2013-08-09 20:36:00,
2013-08-09 16:42:00,79.1,65.4,29.91,SW,221,0.0,8.0,63,0.00,,SCT200,0.00,VWS V14.00,2013-08-09 20:42:00,
2013-08-09 16:47:00,79.5,64.9,29.91,SW,214,1.0,8.0,61,0.00,,SCT200,0.00,VWS V14.00,2013-08-09 20:47:00,
2013-08-09 16:52:00,79.1,65.0,29.91,SSW,200,4.0,8.0,62,0.00,,SCT200,0.00,VWS V14.00,2013-08-09 20:52:00,
2013-08-09 16:57:00,78.7,64.6,29.92,WSW,248,3.0,8.0,62,0.00,,SCT200,0.00,VWS V14.00,2013-08-09 20:57:00,
2013-08-09 17:00:00,78.7,65.1,29.91,SSE,160,1.0,10.0,63,0.00,,OVC120,0.00,VWS V14.00,2013-08-09 21:00:00,
2013-08-09 17:02:00,78.7,64.1,29.92,SW,217,0.0,3.0,61,0.00,,SCT200,0.00,VWS V14.00,2013-08-09 21:02:00,
2013-08-09 17:07:00,78.2,64.1,29.92,South,190,0.0,8.0,62,0.00,,SCT200,0.00,VWS V14.00,2013-08-09 21:07:00,
2013-08-09 17:12:00,77.8,64.2,29.92,SW,214,0.0,8.0,63,0.00,,SCT200,0.00,VWS V14.00,2013-08-09 21:12:00,
2013-08-09 17:17:00,78.2,64.6,29.92,WSW,245,0.0,8.0,63,0.00,,SCT200,0.00,VWS V14.00,2013-08-09 21:17:00,
2013-08-09 17:22:00,78.1,64.0,29.92,SSW,196,0.0,8.0,62,0.00,,SCT200,0.00,VWS V14.00,2013-08-09 21:22:00,
2013-08-09 17:27:00,77.8,64.2,29.92,South,188,3.0,8.0,63,0.00,,SCT200,0.00,VWS V14.00,2013-08-09 21:27:00,
2013-08-09 17:30:00,78.1,65.8,29.91,ESE,113,3.0,13.0,66,0.00,,OVC120,0.00,VWS V14.00,2013-08-09 21:30:00,
2013-08-09 17:32:00,78.1,65.4,29.92,SSW,209,0.0,3.0,65,0.00,,SCT200,0.00,VWS V14.00,2013-08-09 21:32:00,
2013-08-09 17:37:00,78.0,63.0,29.92,SSW,211,1.0,6.0,60,0.00,,SCT200,0.00,VWS V14.00,2013-08-09 21:37:00,
2013-08-09 17:42:00,77.3,64.2,29.92,SE,140,0.0,6.0,64,0.00,,SCT200,0.00,VWS V14.00,2013-08-09 21:42:00,
2013-08-09 17:47:00,77.0,63.0,29.92,West,277,2.0,6.0,62,0.00,,SCT200,0.00,VWS V14.00,2013-08-09 21:47:00,
2013-08-09 17:52:00,76.6,62.6,29.92,NNW,346,0.0,6.0,62,0.00,,SCT200,0.00,VWS V14.00,2013-08-09 21:52:00,
2013-08-09 17:57:00,76.2,63.1,29.92,SSW,192,0.0,6.0,64,0.00,,SCT200,0.00,VWS V14.00,2013-08-09 21:57:00,
2013-08-09 18:00:00,78.7,64.6,29.92,SW,223,0.0,8.0,62,0.00,,OVC120,0.00,VWS V14.00,2013-08-09 22:00:00,
2013-08-09 18:02:00,76.0,63.8,29.92,SSW,210,0.0,5.0,66,0.00,,BKN250,0.00,VWS V14.00,2013-08-09 22:02:00,
2013-08-09 18:07:00,75.8,64.1,29.92,South,186,0.0,5.0,67,0.00,,BKN250,0.00,VWS V14.00,2013-08-09 22:07:00,
2013-08-09 18:13:00,76.3,64.1,29.92,SE,141,3.0,6.0,66,0.00,,BKN250,0.00,VWS V14.00,2013-08-09 22:13:00,
2013-08-09 18:18:00,76.3,63.7,29.92,SSE,167,0.0,6.0,65,0.00,,BKN250,0.00,VWS V14.00,2013-08-09 22:18:00,
2013-08-09 18:23:00,76.3,64.1,29.92,SSW,198,2.0,6.0,66,0.00,,BKN250,0.00,VWS V14.00,2013-08-09 22:23:00,
2013-08-09 18:28:00,76.2,63.6,29.92,SSW,196,0.0,6.0,65,0.00,,BKN250,0.00,VWS V14.00,2013-08-09 22:28:00,
2013-08-09 18:30:00,77.9,64.3,29.92,South,191,3.0,8.0,63,0.00,,OVC120,0.00,VWS V14.00,2013-08-09 22:30:00,
2013-08-09 18:33:00,76.0,63.8,29.92,SSW,194,0.0,3.0,66,0.00,,BKN250,0.00,VWS V14.00,2013-08-09 22:33:00,
2013-08-09 18:38:00,75.8,63.6,29.92,South,175,0.0,6.0,66,0.00,,BKN250,0.00,VWS V14.00,2013-08-09 22:38:00,
2013-08-09 18:43:00,75.8,63.2,29.92,ENE,74,0.0,6.0,65,0.00,,BKN250,0.00,VWS V14.00,2013-08-09 22:43:00,
2013-08-09 18:48:00,75.7,62.7,29.92,SSW,194,0.0,6.0,64,0.00,,BKN250,0.00,VWS V14.00,2013-08-09 22:48:00,
2013-08-09 18:53:00,75.5,62.5,29.92,South,178,0.0,6.0,64,0.00,,BKN250,0.00,VWS V14.00,2013-08-09 22:53:00,
2013-08-09 18:58:00,75.4,63.3,29.92,SW,222,1.0,6.0,66,0.00,,BKN250,0.00,VWS V14.00,2013-08-09 22:58:00,
2013-08-09 19:00:00,76.1,63.5,29.92,WSW,254,4.0,6.0,65,0.00,,OVC120,0.00,VWS V14.00,2013-08-09 23:00:00,
2013-08-09 19:03:00,75.4,62.8,29.92,East,98,2.0,6.0,65,0.00,,BKN250,0.00,VWS V14.00,2013-08-09 23:03:00,
2013-08-09 19:08:00,75.0,62.5,29.92,South,182,0.0,7.0,65,0.00,,BKN250,0.00,VWS V14.00,2013-08-09 23:08:00,
2013-08-09 19:13:00,74.7,62.6,29.92,WSW,246,1.0,7.0,66,0.00,,BKN250,0.00,VWS V14.00,2013-08-09 23:13:00,
2013-08-09 19:18:00,74.3,62.6,29.92,SW,230,0.0,7.0,67,0.00,,BKN250,0.00,VWS V14.00,2013-08-09 23:18:00,
2013-08-09 19:23:00,74.1,63.3,29.92,SW,231,0.0,7.0,69,0.00,,BKN250,0.00,VWS V14.00,2013-08-09 23:23:00,
2013-08-09 19:28:00,74.0,62.8,29.92,SW,230,0.0,7.0,68,0.00,,BKN250,0.00,VWS V14.00,2013-08-09 23:28:00,
2013-08-09 19:30:00,76.1,63.9,29.92,SSW,194,0.0,6.0,66,0.00,,OVC120,0.00,VWS V14.00,2013-08-09 23:30:00,
2013-08-09 19:33:00,73.9,63.1,29.92,SW,231,0.0,1.0,69,0.00,,BKN250,0.00,VWS V14.00,2013-08-09 23:33:00,
2013-08-09 19:38:00,73.6,63.2,29.92,SW,230,0.0,1.0,70,0.00,,BKN250,0.00,VWS V14.00,2013-08-09 23:38:00,
2013-08-09 19:43:00,73.2,62.8,29.92,SW,232,0.0,2.0,70,0.00,,BKN250,0.00,VWS V14.00,2013-08-09 23:43:00,
2013-08-09 19:48:00,72.8,62.5,29.92,SW,232,0.0,2.0,70,0.00,,BKN250,0.00,VWS V14.00,2013-08-09 23:48:00,
2013-08-09 19:53:00,72.4,62.5,29.92,SW,228,0.0,2.0,71,0.00,,BKN250,0.00,VWS V14.00,2013-08-09 23:53:00,
2013-08-09 19:58:00,72.2,62.3,29.92,SW,225,0.0,3.0,71,0.00,,BKN250,0.00,VWS V14.00,2013-08-09 23:58:00,
2013-08-09 20:00:00,75.4,62.8,29.92,SW,223,0.0,8.0,65,0.00,,OVC120,0.00,VWS V14.00,2013-08-10 00:00:00,
2013-08-09 20:03:00,72.0,62.5,29.93,SW,225,0.0,1.0,72,0.00,,BKN250,0.00,VWS V14.00,2013-08-10 00:03:00,
2013-08-09 20:08:00,71.6,62.5,29.93,SW,223,0.0,3.0,73,0.00,,BKN250,0.00,VWS V14.00,2013-08-10 00:08:00,
2013-08-09 20:13:00,71.3,62.6,29.93,SW,219,0.0,4.0,74,0.00,,BKN250,0.00,VWS V14.00,2013-08-10 00:13:00,
2013-08-09 20:18:00,71.0,62.7,29.93,SW,225,0.0,4.0,75,0.00,,BKN250,0.00,VWS V14.00,2013-08-10 00:18:00,
2013-08-09 20:24:00,70.5,62.2,29.93,WSW,254,3.0,4.0,75,0.00,,BKN250,0.00,VWS V14.00,2013-08-10 00:24:00,
2013-08-09 20:29:00,70.3,62.0,29.93,SW,225,0.0,4.0,75,0.00,,BKN250,0.00,VWS V14.00,2013-08-10 00:29:00,
2013-08-09 20:30:00,74.0,63.2,29.92,SW,230,0.0,7.0,69,0.00,,OVC120,0.00,VWS V14.00,2013-08-10 00:30:00,
2013-08-09 20:34:00,69.9,62.0,29.93,SW,225,0.0,0.0,76,0.00,,BKN250,0.00,VWS V14.00,2013-08-10 00:34:00,
2013-08-09 20:39:00,69.5,62.0,29.93,South,181,0.0,1.0,77,0.00,,BKN250,0.00,VWS V14.00,2013-08-10 00:39:00,
2013-08-09 20:44:00,69.1,62.0,29.93,South,181,0.0,1.0,78,0.00,,BKN250,0.00,VWS V14.00,2013-08-10 00:44:00,
2013-08-09 20:49:00,68.7,61.9,29.93,South,180,0.0,1.0,79,0.00,,BKN250,0.00,VWS V14.00,2013-08-10 00:49:00,
2013-08-09 20:54:00,68.2,61.8,29.93,South,181,0.0,1.0,80,0.00,,BKN250,0.00,VWS V14.00,2013-08-10 00:54:00,
2013-08-09 20:59:00,67.5,61.8,29.94,South,180,0.0,1.0,82,0.00,,BKN250,0.00,VWS V14.00,2013-08-10 00:59:00,
2013-08-09 21:00:00,72.1,62.2,29.92,SW,225,0.0,3.0,71,0.00,,OVC120,0.00,VWS V14.00,2013-08-10 01:00:00,
2013-08-09 21:04:00,66.7,61.4,29.94,South,180,0.0,0.0,83,0.00,,BKN250,0.00,VWS V14.00,2013-08-10 01:04:00,
2013-08-09 21:09:00,65.9,60.9,29.94,South,181,0.0,0.0,84,0.00,,BKN250,0.00,VWS V14.00,2013-08-10 01:09:00,
2013-08-09 21:14:00,65.5,61.2,29.94,South,180,0.0,0.0,86,0.00,,BKN250,0.00,VWS V14.00,2013-08-10 01:14:00,
2013-08-09 21:19:00,65.3,61.3,29.95,South,181,0.0,0.0,87,0.00,,BKN250,0.00,VWS V14.00,2013-08-10 01:19:00,
2013-08-09 21:24:00,65.2,61.2,29.95,South,180,0.0,0.0,87,0.00,,BKN250,0.00,VWS V14.00,2013-08-10 01:24:00,
2013-08-09 21:29:00,65.1,61.1,29.95,South,181,0.0,0.0,87,0.00,,BKN250,0.00,VWS V14.00,2013-08-10 01:29:00,
2013-08-09 21:30:00,70.2,62.3,29.93,SW,225,0.0,4.0,76,0.00,,OVC120,0.00,VWS V14.00,2013-08-10 01:30:00,
2013-08-09 21:34:00,65.0,61.0,29.95,South,181,0.0,0.0,87,0.00,,BKN250,0.00,VWS V14.00,2013-08-10 01:34:00,
2013-08-09 21:39:00,64.9,61.3,29.95,South,181,0.0,0.0,88,0.00,,BKN250,0.00,VWS V14.00,2013-08-10 01:39:00,
2013-08-09 21:44:00,64.9,61.3,29.96,South,181,0.0,0.0,88,0.00,,BKN250,0.00,VWS V14.00,2013-08-10 01:44:00,
2013-08-09 21:49:00,64.9,60.9,29.96,South,181,0.0,0.0,87,0.00,,BKN250,0.00,VWS V14.00,2013-08-10 01:49:00,
2013-08-09 21:54:00,64.7,61.1,29.96,South,181,0.0,0.0,88,0.00,,BKN250,0.00,VWS V14.00,2013-08-10 01:54:00,
2013-08-09 22:00:00,64.5,61.2,29.96,South,181,0.0,0.0,89,0.00,,BKN250,0.00,VWS V14.00,2013-08-10 02:00:00,
2013-08-09 22:05:00,64.4,61.1,29.96,South,180,0.0,0.0,89,0.00,,BKN250,0.00,VWS V14.00,2013-08-10 02:05:00,
2013-08-09 22:10:00,64.4,61.1,29.97,South,180,0.0,0.0,89,0.00,,BKN250,0.00,VWS V14.00,2013-08-10 02:10:00,
2013-08-09 22:15:00,64.3,61.0,29.97,South,181,0.0,0.0,89,0.00,,BKN250,0.00,VWS V14.00,2013-08-10 02:15:00,
2013-08-09 22:20:00,64.1,61.1,29.97,South,180,0.0,0.0,90,0.00,,BKN250,0.00,VWS V14.00,2013-08-10 02:20:00,
2013-08-09 22:25:00,63.9,60.9,29.97,South,181,0.0,0.0,90,0.00,,BKN250,0.00,VWS V14.00,2013-08-10 02:25:00,
2013-08-09 22:30:00,63.9,60.9,29.97,South,181,0.0,0.0,90,0.00,,BKN250,0.00,VWS V14.00,2013-08-10 02:30:00,
2013-08-09 22:35:00,64.0,61.3,29.97,South,181,0.0,1.0,91,0.00,,BKN250,0.00,VWS V14.00,2013-08-10 02:35:00,
2013-08-09 22:40:00,64.0,61.3,29.97,South,181,0.0,1.0,91,0.00,,BKN250,0.00,VWS V14.00,2013-08-10 02:40:00,
2013-08-09 22:45:00,64.0,61.3,29.97,South,180,0.0,1.0,91,0.00,,BKN250,0.00,VWS V14.00,2013-08-10 02:45:00,
2013-08-09 22:50:00,64.1,61.4,29.97,South,181,0.0,1.0,91,0.00,,BKN250,0.00,VWS V14.00,2013-08-10 02:50:00,
2013-08-09 22:55:00,64.1,61.4,29.97,South,181,0.0,1.0,91,0.00,,BKN250,0.00,VWS V14.00,2013-08-10 02:55:00,
2013-08-09 23:00:00,64.0,61.3,29.97,South,181,0.0,0.0,91,0.00,,BKN250,0.00,VWS V14.00,2013-08-10 03:00:00,
2013-08-09 23:05:00,64.0,61.3,29.97,South,180,0.0,0.0,91,0.00,,BKN250,0.00,VWS V14.00,2013-08-10 03:05:00,
2013-08-09 23:10:00,64.0,61.3,29.97,South,181,0.0,0.0,91,0.00,,BKN250,0.00,VWS V14.00,2013-08-10 03:10:00,
2013-08-09 23:15:00,64.0,61.6,29.97,South,180,0.0,0.0,92,0.00,,BKN250,0.00,VWS V14.00,2013-08-10 03:15:00,
2013-08-09 23:20:00,63.8,61.4,29.97,South,181,0.0,0.0,92,0.00,,BKN250,0.00,VWS V14.00,2013-08-10 03:20:00,
2013-08-09 23:25:00,63.8,61.4,29.98,South,181,0.0,0.0,92,0.00,,BKN250,0.00,VWS V14.00,2013-08-10 03:25:00,
2013-08-09 23:30:00,63.6,61.2,29.98,South,180,0.0,0.0,92,0.00,,BKN250,0.00,VWS V14.00,2013-08-10 03:30:00,
2013-08-09 23:35:00,63.6,61.2,29.98,South,181,0.0,0.0,92,0.00,,BKN250,0.00,VWS V14.00,2013-08-10 03:35:00,
2013-08-09 23:40:00,63.6,61.2,29.98,South,181,0.0,0.0,92,0.00,,BKN250,0.00,VWS V14.00,2013-08-10 03:40:00,
2013-08-09 23:45:00,63.4,61.0,29.98,South,180,0.0,0.0,92,0.00,,BKN250,0.00,VWS V14.00,2013-08-10 03:45:00,
2013-08-09 23:51:00,63.4,61.0,29.98,South,181,0.0,0.0,92,0.00,,BKN250,0.00,VWS V14.00,2013-08-10 03:51:00,
2013-08-09 23:56:00,63.2,60.8,29.98,South,181,0.0,0.0,92,0.00,,BKN250,0.00,VWS V14.00,2013-08-10 03:56:00,